GEFSNE_500_meanwind_024.txt.gz
Wind_Speed
28 28 28 29 31 32 33 34 36 36 37 38 39 38 36 35 36 36 37 37 37 34 32 31 30 29 27 26 25 24 23 23 22 23 23 24 24 25
26 26 27 27 28 30 32 32 34 35 37 37 39 38 37 35 35 35 36 37 36 33 32 30 29 28 27 25 24 24 23 23 23 23 24 25 25 25
26 26 26 25 26 27 29 31 33 34 36 37 37 37 36 34 35 35 37 37 34 33 31 30 29 27 26 25 24 23 22 22 22 22 23 23 23 23
27 26 26 26 26 25 27 27 28 31 33 34 35 35 34 33 34 35 35 33 32 31 30 29 27 26 25 23 22 22 22 22 21 21 21 21 21 20
28 28 27 27 27 25 25 25 24 25 26 27 28 29 30 29 30 30 28 28 28 27 27 28 26 25 23 22 22 22 22 21 20 20 20 20 19 18
27 28 28 28 28 27 26 25 23 21 20 21 20 21 23 24 24 25 25 25 25 24 25 25 24 24 23 22 21 21 21 21 20 20 20 20 19 19
28 28 28 29 29 29 29 28 26 24 22 20 20 19 20 21 21 22 22 23 23 23 24 24 24 23 22 21 21 21 21 21 20 20 20 20 20 20
28 28 29 29 30 31 31 30 29 28 27 25 24 23 21 20 20 20 21 23 23 23 22 23 23 23 22 21 21 21 21 21 21 21 22 22 22 22
27 27 28 28 29 31 31 32 32 32 31 30 29 28 27 25 24 23 24 24 24 24 24 25 25 24 23 22 21 21 22 22 22 22 23 24 25 25
25 25 26 27 28 29 30 31 32 33 34 34 34 33 32 31 30 28 28 27 27 27 28 27 27 27 26 24 23 23 23 23 23 23 24 26 28 29
21 22 23 23 25 26 28 29 31 32 34 35 36 36 36 36 35 33 33 32 31 30 30 30 29 28 27 27 27 26 26 25 25 25 26 27 29 30
18 19 19 20 22 23 24 26 27 28 30 32 33 35 36 37 38 38 37 36 36 37 36 33 33 34 33 33 32 31 30 30 29 29 29 30 30 31
18 19 20 21 22 23 25 26 27 28 28 29 30 31 33 35 36 38 39 40 41 41 41 41 40 40 38 38 38 36 35 35 35 34 34 34 33 33
20 21 22 24 25 26 27 28 29 30 30 31 31 32 32 32 33 35 37 39 42 44 44 45 45 45 44 43 42 41 41 40 39 38 38 37 36 35
21 23 24 26 27 27 28 29 30 30 31 32 32 33 34 34 34 34 35 37 39 42 44 46 47 47 47 46 45 46 45 44 43 41 40 40 39 38
22 23 23 24 25 26 26 27 28 29 30 31 32 33 34 35 36 37 38 37 38 39 41 43 45 47 48 48 46 45 46 46 46 45 44 43 42 41
21 22 22 23 24 24 25 25 26 27 27 28 29 31 33 35 36 38 39 39 39 38 39 40 42 43 45 46 46 46 46 46 46 46 45 44 43 43
21 22 23 24 25 26 26 26 26 26 26 27 28 29 31 33 35 37 38 40 40 40 39 39 39 39 41 43 44 44 45 45 44 44 44 44 44 44
22 23 25 26 26 27 27 27 26 26 26 26 26 27 28 30 32 34 37 39 40 41 41 40 39 37 36 37 39 41 42 43 43 43 43 44 44 45
24 25 26 27 28 28 28 27 27 26 25 25 26 26 27 28 29 31 33 36 39 41 42 42 40 39 36 35 34 34 36 38 40 42 43 44 45 45
25 26 26 27 28 29 29 28 27 27 26 26 26 26 26 26 27 28 29 32 35 37 40 41 42 42 40 38 36 34 32 32 34 37 40 42 43 44
25 26 27 28 29 29 30 30 29 28 27 26 26 26 26 26 26 27 27 28 30 33 36 39 41 42 43 42 41 38 36 34 32 31 33 35 38 40
26 28 29 30 30 31 32 32 31 30 28 27 27 27 27 27 27 27 27 27 27 29 31 34 37 41 43 45 45 44 42 39 36 34 32 31 32 34

GEFSNE_500_meanwind_030.txt.gz
Wind_Speed
31 30 31 31 31 30 30 30 30 31 31 33 36 38 39 38 38 38 39 39 39 40 40 40 39 40 39 38 37 34 32 31 29 28 27 26 26 25
29 29 30 31 31 31 31 31 31 32 32 32 34 36 37 38 38 39 39 40 39 40 41 40 40 39 39 39 38 35 33 31 29 28 28 28 27 27
29 30 31 32 32 32 33 33 33 33 33 32 32 32 33 34 36 38 40 40 40 39 38 40 40 39 39 40 39 36 33 31 30 29 29 29 28 28
30 31 32 32 33 34 34 35 35 34 34 33 32 31 31 31 31 33 35 36 37 37 37 38 38 38 38 39 38 36 33 32 31 30 30 30 30 30
30 31 32 33 34 34 35 36 36 35 35 34 33 32 30 29 29 30 32 32 33 33 34 34 35 35 34 36 36 34 33 32 32 31 31 31 31 31
30 31 32 33 34 35 35 36 36 36 36 35 34 33 31 29 28 27 28 28 28 29 31 31 32 31 30 31 32 31 31 31 31 32 32 33 33 33
29 30 31 33 33 34 35 35 36 36 36 35 35 34 32 30 29 27 27 25 24 25 27 27 27 28 28 28 29 30 30 31 31 32 33 33 33 33
28 29 30 31 32 33 34 34 34 35 35 35 35 34 33 32 31 29 28 26 25 24 24 24 24 24 26 28 29 30 32 33 34 34 33 33 33 34
25 26 28 29 30 30 31 32 32 33 33 33 33 33 33 32 31 31 30 29 27 25 24 21 21 23 24 25 28 31 33 34 36 36 34 35 35 34
23 24 25 25 26 27 28 28 29 30 31 31 32 32 32 32 31 30 30 30 30 29 27 25 23 22 23 25 27 30 33 34 35 35 35 35 34 34
20 20 21 22 23 24 25 26 27 28 29 30 31 31 31 32 31 31 31 30 30 31 30 28 27 25 24 25 25 26 29 32 34 34 34 34 34 35
16 17 18 20 21 23 24 26 27 28 29 30 30 31 32 32 31 31 31 31 31 30 30 30 29 28 27 26 25 25 27 30 31 33 33 33 33 33
15 17 18 20 22 23 25 27 29 30 31 32 32 32 33 33 33 32 32 31 31 32 31 30 30 30 30 29 28 28 28 29 31 31 32 33 33 32
16 17 18 20 22 23 25 26 27 28 28 29 30 31 32 32 33 33 33 32 32 33 33 33 34 33 32 31 31 31 31 31 30 31 32 33 35 35
16 17 18 20 21 23 23 24 25 25 26 26 26 27 28 29 30 32 33 33 33 34 34 35 36 36 36 35 34 32 32 32 32 32 33 34 34 36
16 17 18 20 21 23 24 24 24 24 24 25 25 25 26 26 26 27 29 31 33 34 34 35 35 36 37 37 36 36 34 34 34 35 36 36 36 37
16 17 18 20 21 23 24 24 24 24 24 24 24 23 23 24 24 24 26 28 29 31 33 34 34 34 35 36 37 36 36 36 37 37 38 38 38 38
15 16 18 20 21 23 24 24 25 25 25 24 23 23 23 23 23 24 24 25 26 28 30 32 33 33 33 33 34 35 36 36 38 38 40 41 42 41
15 16 18 20 21 23 24 24 25 25 26 26 25 24 23 23 23 23 24 25 26 27 28 29 30 32 33 33 33 34 34 36 36 37 39 40 41 42
15 16 17 19 21 23 24 25 25 26 26 26 26 25 24 24 23 23 23 24 25 26 26 27 29 30 32 33 34 35 35 35 36 36 36 37 39 40
15 16 17 19 21 23 24 25 25 27 27 28 27 26 25 25 24 24 24 24 25 25 26 27 27 29 30 32 33 34 34 35 36 35 35 36 38 39
16 16 17 18 20 22 23 24 26 27 29 29 28 28 27 26 26 25 25 25 26 26 27 27 27 28 29 31 32 33 34 34 34 36 36 36 37 38
16 16 17 18 20 22 23 24 27 29 30 31 31 30 30 29 28 27 26 26 26 26 27 27 27 27 28 29 31 32 33 35 35 36 36 37 38 38

GEFSNE_500_meanwind_036.txt.gz
Wind_Speed
34 33 32 31 30 29 29 29 28 28 28 28 29 29 30 30 31 31 31 32 32 33 34 35 36 37 38 39 40 40 39 39 38 37 36 36 36 34
34 32 30 29 28 28 28 28 28 28 28 29 30 30 31 32 33 33 33 33 34 34 34 35 36 37 38 40 41 41 41 40 40 39 37 35 36 36
30 29 28 28 28 28 28 27 28 28 29 31 32 32 33 34 34 35 35 35 35 35 35 35 36 37 38 39 40 41 41 40 39 38 38 37 36 36
28 28 27 27 27 27 28 28 29 29 30 31 33 33 34 35 36 36 37 37 36 36 36 36 35 36 37 39 39 40 40 40 39 37 37 37 36 37
27 27 26 26 27 27 28 28 29 30 31 32 33 34 35 35 36 36 37 37 36 36 36 35 35 35 35 36 37 38 39 39 39 38 37 36 36 37
24 24 25 25 25 26 26 27 28 29 30 32 33 34 35 35 35 36 36 36 36 36 35 36 35 34 34 35 35 36 37 37 37 36 36 35 36 37
22 22 22 22 22 23 24 25 27 28 29 30 32 33 34 34 35 35 35 35 36 36 35 34 34 34 34 33 32 32 33 34 34 34 33 33 34 36
19 19 19 19 20 21 22 23 24 25 26 28 29 30 31 32 33 34 34 34 34 34 34 33 32 32 32 31 30 30 30 31 31 32 32 33 35 36
16 16 17 17 18 18 19 19 20 22 24 25 27 28 29 31 32 32 33 33 32 32 31 31 31 31 30 29 29 28 28 28 29 30 32 34 36 38
13 14 14 13 14 14 16 17 19 21 23 25 27 29 31 32 33 33 33 33 32 31 30 30 29 29 28 27 26 25 25 26 27 29 32 33 36 40
10 10 10 11 11 13 14 16 18 21 23 26 28 29 30 31 32 33 33 32 32 31 30 30 29 28 27 26 25 24 23 25 27 27 31 35 36 37
7 8 8 10 11 12 14 16 19 22 23 25 26 27 28 29 30 30 31 30 30 29 29 29 29 28 27 26 25 24 23 23 25 26 28 30 32 34
6 7 9 10 11 13 15 17 19 21 23 25 26 27 27 27 27 27 27 27 27 26 26 26 26 26 26 25 24 23 22 22 22 24 25 26 28 31
7 8 9 10 12 13 15 17 19 21 23 25 26 27 27 27 26 26 26 25 25 24 23 23 23 24 24 24 24 24 23 22 21 21 22 24 25 27
8 9 10 11 12 13 15 17 19 21 23 25 26 26 27 26 26 25 25 24 23 22 22 21 22 22 23 23 24 24 25 24 23 21 21 20 21 24
10 10 11 11 12 14 15 17 19 21 23 24 25 26 26 26 26 25 24 23 22 21 21 20 20 21 21 22 23 24 25 25 25 23 23 23 24 24
12 12 12 12 13 14 14 16 18 20 22 23 25 25 26 26 26 25 24 23 22 21 21 21 20 21 20 21 22 24 25 26 28 28 27 26 27 27
13 13 13 13 14 14 14 15 17 20 21 23 24 25 26 27 27 26 25 24 23 22 21 20 20 21 21 20 21 22 24 26 28 29 30 30 30 30
15 15 15 15 15 15 15 16 17 19 21 22 24 26 27 28 29 28 26 25 24 23 22 21 21 21 21 21 21 22 24 26 29 30 31 32 34 35
17 16 16 16 16 16 15 16 17 18 20 22 24 26 28 29 30 30 28 27 26 24 23 22 22 22 22 22 22 23 23 25 28 31 32 34 35 37
18 18 18 17 17 17 17 16 17 19 20 22 24 26 28 30 31 31 30 29 27 26 24 23 22 22 22 22 23 23 24 25 27 30 32 34 36 37
19 19 19 19 19 18 17 17 18 18 20 21 24 27 29 31 32 33 32 31 29 27 26 24 23 23 23 23 23 23 24 25 27 29 32 33 35 37
20 21 21 21 20 19 19 18 19 20 21 23 25 28 30 32 33 34 34 32 31 29 28 26 24 24 23 23 23 24 24 25 26 28 30 32 34 37

GEFSNE_500_meanwind_042.txt.gz
Wind_Speed
41 40 39 37 35 33 33 32 31 31 30 28 27 26 26 25 25 25 25 26 26 26 27 27 28 29 29 29 29 30 31 33 34 36 37 38 39 39
37 37 36 35 33 31 30 29 28 28 27 26 25 25 25 25 25 26 26 27 28 28 28 29 30 30 30 31 31 32 33 34 35 37 38 39 40 39
33 32 31 31 29 28 28 26 25 24 24 23 23 23 24 24 25 26 28 29 29 30 30 31 32 32 33 33 33 34 34 35 37 38 39 40 41 41
29 29 29 29 29 28 27 25 24 23 22 22 22 23 24 25 26 27 28 29 30 31 32 32 33 34 35 35 35 36 36 37 38 39 40 41 42 42
25 25 26 26 26 25 24 24 23 22 22 22 22 23 24 25 26 27 28 29 30 32 33 34 35 35 36 36 37 37 38 39 39 40 41 42 42 43
24 23 24 24 24 22 22 22 22 21 20 21 21 22 23 24 25 26 27 29 30 31 33 34 34 35 36 37 38 38 39 39 40 41 42 42 42 43
23 23 23 22 22 21 20 20 19 18 19 19 20 20 21 22 23 24 26 27 29 30 31 33 34 35 36 37 38 39 39 40 40 40 41 42 42 41
21 20 20 19 19 18 18 17 17 16 16 17 17 18 19 20 22 23 25 27 29 30 32 34 35 36 36 37 37 38 39 39 39 39 40 41 40 40
17 17 17 16 16 15 14 14 14 13 14 15 15 16 17 18 20 22 24 26 28 30 32 33 34 35 36 36 37 37 37 38 38 37 37 38 39 39
14 14 13 12 12 12 12 11 11 12 12 12 13 14 15 17 19 21 23 26 28 29 30 31 32 33 34 35 35 36 35 35 35 36 35 34 35 37
12 11 11 10 10 9 9 9 9 9 10 10 12 13 15 17 19 21 23 25 27 28 29 29 30 31 31 31 32 33 33 33 33 32 32 31 32 34
10 10 10 10 9 9 9 8 8 8 9 10 11 13 14 17 19 21 22 24 26 28 28 28 28 28 29 29 28 28 29 30 30 30 28 28 29 31
9 10 9 9 9 8 8 8 8 8 9 10 11 13 15 17 19 20 22 24 25 27 27 27 27 26 26 25 25 24 25 26 27 27 26 25 26 27
9 9 9 9 8 8 8 7 8 8 9 10 11 13 15 17 19 21 22 24 25 26 26 26 25 24 23 22 22 22 22 22 23 24 24 22 21 22
9 9 9 9 9 8 8 8 8 8 9 10 12 13 15 17 19 21 23 24 26 26 26 25 24 23 22 21 20 19 19 19 20 20 20 20 20 19
10 10 10 9 9 9 9 9 9 9 9 11 12 14 16 17 20 22 24 25 27 27 27 26 24 23 21 20 20 19 18 18 18 18 19 19 19 19
11 11 10 10 10 10 10 10 10 9 10 12 13 14 16 17 20 22 24 26 27 27 27 27 25 23 21 20 20 19 18 18 17 18 19 20 20 20
12 12 11 11 11 11 11 11 10 11 12 12 13 14 15 17 19 22 24 26 27 28 28 28 26 24 22 20 20 20 19 19 19 20 21 21 22 22
12 12 12 12 12 12 12 12 12 13 13 13 14 15 16 17 20 22 24 26 27 29 29 29 28 26 24 22 20 20 20 20 20 21 22 23 24 25
13 13 13 13 13 14 14 14 14 14 15 15 15 16 16 18 20 22 24 26 28 29 30 30 29 27 25 23 22 21 21 21 21 21 23 24 25 26
13 13 13 14 15 15 16 16 16 16 16 16 17 17 18 19 21 22 24 26 28 29 31 31 31 30 28 25 23 22 22 22 22 23 23 24 26 27
15 15 15 15 16 16 17 17 18 18 18 18 18 19 20 20 22 23 24 26 29 30 31 32 32 31 30 27 25 23 22 22 23 23 24 25 26 28
17 17 17 17 17 18 18 19 20 20 19 19 20 20 21 22 23 24 25 27 29 31 32 33 33 33 31 29 27 25 23 22 22 23 23 25 26 28

GEFSNE_500_meanwind_048.txt.gz
Wind_Speed
36 36 35 34 34 34 33 33 33 32 31 31 30 29 28 29 29 29 29 28 28 29 28 29 29 29 29 29 29 30 31 31 32 32 33 33 34 35
35 35 34 33 32 31 31 30 30 30 29 29 28 28 27 28 28 29 29 28 27 28 28 28 28 29 29 30 31 32 33 33 34 34 35 36 37 37
33 32 31 30 29 30 30 29 28 27 27 27 26 25 25 24 25 26 27 26 27 27 28 28 29 30 31 32 33 34 34 35 36 37 38 39 39 40
30 29 28 28 28 28 28 28 27 26 26 25 24 24 23 23 23 24 24 25 26 27 27 28 28 29 31 31 32 34 35 37 38 39 40 41 42 43
27 27 27 26 27 27 27 26 26 25 24 23 22 21 21 21 22 22 22 23 24 24 25 26 27 29 30 31 32 34 36 38 39 41 42 44 45 46
24 24 24 24 24 25 24 24 24 24 23 22 20 20 20 20 21 21 21 21 22 22 23 24 25 27 28 30 32 33 35 38 40 42 44 45 47 47
21 21 21 21 22 22 22 23 23 22 21 20 20 20 19 19 18 18 18 19 19 20 21 22 24 25 27 29 31 33 35 38 40 42 45 47 48 49
19 19 19 20 20 21 21 21 21 21 20 19 19 18 17 16 15 15 16 17 18 18 20 21 23 24 26 28 31 33 36 38 40 42 45 47 49 50
17 18 19 19 19 19 19 19 19 18 17 17 15 14 13 13 13 13 14 14 15 16 18 19 21 23 25 27 30 32 35 37 40 43 45 46 48 49
16 16 17 18 17 18 18 17 17 16 15 14 12 12 11 11 11 11 12 13 14 15 16 18 20 22 24 27 29 31 33 35 37 40 42 44 46 47
14 14 14 15 14 14 15 15 15 14 13 12 11 10 10 9 9 10 10 11 12 14 15 17 20 22 24 26 28 31 33 34 35 37 38 40 41 43
12 12 12 12 12 13 13 13 13 13 12 11 10 9 8 8 8 8 9 10 12 14 15 17 20 22 25 27 29 31 32 33 34 34 35 36 37 38
12 12 12 12 12 13 13 13 12 11 10 9 8 8 7 7 7 7 8 10 12 13 15 18 20 23 25 27 29 30 31 32 32 31 31 32 32 33
13 13 13 13 13 14 13 12 12 11 9 8 8 7 6 6 6 7 9 10 12 14 16 18 21 23 25 27 29 29 30 30 29 28 28 28 28 28
14 15 15 14 14 13 12 12 11 10 9 8 8 7 6 6 7 8 9 11 13 15 17 19 21 23 25 26 28 28 28 29 28 27 25 24 24 24
15 15 15 14 13 12 12 12 11 10 9 9 8 7 7 7 8 9 10 11 13 16 18 20 21 24 25 26 27 27 27 27 27 26 24 23 22 21
17 16 15 14 13 13 12 12 11 11 10 10 9 9 9 9 9 10 11 13 14 16 18 21 23 24 26 26 27 27 27 26 26 25 23 22 21 20
18 17 16 15 14 13 12 12 12 11 11 11 10 10 10 10 11 11 13 14 15 17 19 21 22 24 26 27 27 28 27 27 26 26 24 22 21 19
18 17 16 15 14 13 13 12 12 12 12 12 12 12 12 12 13 13 14 15 16 18 19 21 22 24 26 27 28 28 29 28 27 26 24 22 21 20
19 17 16 15 14 13 13 13 13 13 13 13 14 14 14 14 15 15 16 17 18 19 20 21 22 24 25 27 28 29 29 29 28 27 25 24 22 21
19 18 16 15 14 14 14 14 14 14 15 15 15 16 16 16 17 17 17 18 19 20 20 21 22 24 26 28 29 30 30 30 29 28 27 25 23 22
19 17 16 15 15 14 14 15 15 16 16 17 17 17 18 18 19 19 19 20 20 20 21 22 23 24 26 28 30 31 32 31 31 30 28 26 25 23
19 18 17 16 15 15 15 16 16 17 17 18 18 19 19 20 20 20 21 21 21 22 22 23 24 25 27 29 30 32 32 32 32 32 30 29 27 25